7 * 24
多渠道服务支持
STARLINK-37099(NORAD编号68301)是美国太空探索技术公司SpaceX星链星座的低轨卫星。作为全球卫星互联网项目的组成部分,该卫星运行在近地轨道,为偏远及基础设施匮乏地区提供高速低延迟互联网接入服务。星链星座目前已大规模部署超9000颗活跃卫星,构建起全球激光互联网络,STARLINK-37099也参与其中,依靠星间激光传输实现高速数据通信。SpaceX对这类卫星采用自动碰撞规避机制和退役安全再入策略,降低太空垃圾风险,保障星座稳定运行,推动全球互联网覆盖。
美国
(US)
| 数据来源 | 国际轨道数据 |
| 星历时间: | 2026-09-13T05:10:27+0800 12小时前 查看轨道信息 |
| 半长轴: | 6843.654km |
| 偏心率: | 0.0000251 |
| 轨道倾角: | 97.287° |
| 近地点辐角 | 94.029° |
| 升交点赤经 | 21.352° |
| 平近点角 | 266.098° |
| 近地点: | 465.345km |
| 远地点: | 465.689km |
| 周期: | 93.906分钟 |
| 每日圈数: | 15.334541 |